Location: 22
(39.7117°N, 89.5929°W)
Time: 06:01:26
(UTC-05:00)

ISS - Pass Details

Date: 03 October 2021
Orbit: 417 x 423 km, 51.6° (Epoch: 16 October)

Event Time Altitude Azimuth Distance (km) Brightness Sun altitude
Rises 21:06:02 0° 298° (WNW) 2,363 1.3 -29.1°
Reaches altitude 10° 21:08:19 10° 286° (WNW) 1,497 0.0 -29.5°
Enters shadow 21:09:11 15° 276° (W) 1,210 -0.7 -29.6°
